sat.trackr.live / text

‹ back to catalog

STARLINK-31399

NORAD 59416 · 2024-064U

PAYLOAD ACTIVE UNKNOWN

§ Identity

Operator
Country
US
Launch date
2024-04-05
Launch site
AFETR
Launch vehicle
Mass (kg)
RCS (m²)

Purposes: comms

External: N2YO · Heavens-Above · Gunter

§ Orbital elements

Epoch: 2026-05-24T21:40:54.224832Z

Period
94.27 min
Inclination
43.0014°
Eccentricity
0.0001121
Mean motion
15.27580181 rev/d
Perigee alt
482.3 km
Apogee alt
483.8 km
Semi-major
6,861.2 km
B*
4.4250e-5
RAAN
345.5826°
Arg perigee
266.0328°
Mean anomaly
94.0396°
Rev number
12,088

§ Raw data

STARLINK-313991 59416U 24064U   26144.90340538  .00000956  00000+0  44250-4 0  99982 59416  43.0014 345.5826 0001121 266.0328  94.0396 15.27580181120882

JSON: /api/v1/satellites/59416 · /tle

For live sub-satellite position, see the globe view (requires WebGL).

§ Visibility from observer

Set your observer location to see the next 7 days of passes ≥ 10°. The values pass through the URL so the page stays shareable.

No JS? Fill the form by hand. The geolocation button needs JavaScript.